Wind_Speed
12 12 13 14 15 15 15 15 16 16 16 16 17 18 19 19 20 19 18 18 18 18 17 17 18 20 22 23 22 22 21 20 18 17 16 16 15 15 13 12 10 8 7
11 11 12 13 14 15 15 16 17 17 17 17 17 18 19 19 19 19 19 18 18 18 19 19 19 20 23 25 25 24 24 23 22 20 19 18 17 17 16 14 12 10 8
11 12 13 14 14 14 15 15 16 17 18 18 18 19 19 20 20 20 19 19 19 20 20 20 20 20 22 25 26 27 26 26 25 24 22 21 20 19 18 17 15 13 11
11 12 12 12 13 13 14 15 15 16 17 17 18 18 19 19 20 20 20 20 20 21 21 21 22 22 22 24 26 28 29 29 28 27 26 24 23 21 21 19 18 16 14
10 11 11 12 12 13 13 14 14 15 16 16 17 18 18 18 19 20 20 21 21 21 22 23 22 23 23 24 26 28 29 30 31 30 29 28 26 25 23 22 21 19 17
10 11 11 12 12 12 12 13 13 13 14 15 15 16 17 18 19 19 20 21 21 22 22 23 24 23 24 25 26 27 30 32 32 32 32 31 30 29 27 25 24 22 20
10 10 11 11 12 12 12 12 12 13 13 14 15 15 16 16 17 19 20 21 22 22 23 24 24 25 25 25 26 28 28 31 33 34 34 34 33 32 30 29 27 26 24
9 10 11 11 11 12 12 12 12 12 13 13 14 14 15 16 17 18 19 20 21 22 23 24 25 26 26 27 27 29 30 31 33 35 36 36 36 35 34 32 31 29 27
10 11 11 12 12 12 12 13 13 13 13 13 14 14 15 15 16 17 18 19 20 22 23 24 25 27 27 28 29 30 31 32 33 34 36 38 38 38 37 36 34 32 31
11 12 12 12 13 13 13 14 14 15 15 15 15 15 16 16 17 17 18 19 20 22 23 24 26 27 28 28 29 31 32 33 34 35 36 37 39 40 40 38 37 36 34
12 13 13 13 14 15 15 15 15 15 16 17 17 17 18 18 19 20 20 20 21 23 24 25 26 27 29 29 30 31 32 34 35 36 37 38 39 40 41 41 40 39 37
13 14 15 15 15 16 16 16 17 17 18 18 19 20 20 20 21 22 23 24 24 24 25 26 27 28 29 30 31 32 33 35 36 36 36 37 39 39 40 42 42 41 40
14 15 16 16 17 17 17 18 19 19 20 21 22 22 23 23 24 24 25 26 27 28 28 28 29 30 31 32 32 33 35 36 37 38 38 38 39 40 40 41 43 43 43
14 15 16 17 18 18 19 20 21 22 23 24 24 25 26 27 27 27 28 28 29 31 32 32 32 32 33 34 34 35 36 37 38 39 40 40 41 41 41 41 41 43 44
16 17 17 18 19 20 21 22 23 25 25 26 27 28 28 29 29 30 31 31 32 33 35 36 37 37 36 36 36 37 38 39 39 41 42 42 42 42 42 42 42 43 43
18 19 20 21 21 22 23 24 25 26 27 28 29 30 31 32 33 34 35 35 35 36 37 39 40 41 41 40 39 40 40 41 42 42 43 44 44 44 44 43 44 43 43
20 21 22 23 24 25 26 27 28 29 31 32 32 33 34 34 35 36 37 38 38 38 38 40 42 43 43 43 43 42 42 43 43 44 45 46 46 46 46 46 46 46 44
22 23 24 25 26 27 28 30 32 33 34 35 35 35 35 36 37 37 38 38 39 39 39 39 42 43 44 45 45 45 44 44 45 45 46 47 47 48 48 48 48 47 47
24 25 27 28 29 30 31 33 35 36 36 36 36 37 37 38 38 38 38 38 38 38 38 37 39 41 43 44 45 45 46 45 46 46 47 47 48 49 49 50 50 49 48
26 28 29 30 31 32 34 35 37 38 37 37 38 38 39 39 39 39 38 38 37 37 37 37 37 38 40 42 43 44 44 45 46 47 48 48 49 49 50 50 51 51 50
29 30 31 32 33 34 35 37 38 39 39 39 39 40 40 40 40 39 38 37 37 36 36 35 35 36 37 39 40 41 42 43 44 46 47 48 49 49 50 51 52 52 51
31 32 33 35 36 37 38 38 38 39 40 40 40 41 40 40 40 39 38 36 36 35 35 34 33 33 35 36 38 38 39 40 42 44 46 47 48 49 50 51 52 52 52
34 35 36 37 38 39 39 39 39 40 40 41 41 41 41 41 40 39 37 36 35 35 34 34 33 33 33 35 36 37 38 39 39 42 44 45 47 47 48 50 51 52 52
36 37 38 39 40 41 41 41 41 41 41 42 42 42 42 41 40 39 37 35 34 34 34 33 32 32 33 34 34 35 36 37 38 40 43 43 45 46 47 48 50 52 52
39 39 40 41 42 42 42 42 42 42 42 42 43 43 42 41 40 39 37 35 34 34 33 33 32 32 32 33 34 35 35 36 37 39 41 42 43 46 47 48 49 50 52
41 42 42 43 43 44 44 43 43 43 43 43 43 43 42 40 39 38 37 35 34 33 33 33 32 32 33 33 34 34 35 36 37 38 40 41 43 45 46 47 48 49 50
Wind_Direction
289 287 286 285 284 282 281 281 281 280 278 277 271 267 266 266 262 259 258 257 253 247 244 242 237 232 231 228 225 224 222 220 219 218 216 213 210 208 207 205 205 204 203
296 295 292 290 289 287 285 283 281 280 279 277 273 268 265 264 262 259 258 258 254 251 246 244 241 237 233 229 227 226 224 223 221 220 220 217 215 214 213 212 210 210 210
301 300 298 295 293 290 287 285 282 280 278 277 275 272 268 265 263 260 258 258 254 252 249 247 244 241 236 231 230 229 227 225 223 222 222 222 220 219 217 217 217 216 216
307 305 304 302 299 296 293 291 287 284 282 279 277 275 272 267 264 262 258 256 255 253 250 249 247 245 241 235 233 232 230 228 226 225 224 224 224 223 221 221 221 221 221
312 312 311 309 307 304 301 297 292 288 285 283 280 277 274 268 265 263 260 257 255 254 252 251 251 249 245 240 236 234 233 231 228 227 227 226 226 226 225 224 224 224 224
319 319 317 314 311 308 305 301 297 294 291 288 285 281 276 271 268 265 262 259 256 253 253 252 252 250 248 244 240 238 236 233 231 230 229 229 228 227 227 227 227 227 227
321 320 319 318 315 313 310 308 304 300 296 293 289 284 281 277 272 268 264 262 260 256 255 254 253 251 250 248 244 241 239 235 233 232 231 230 230 230 229 229 229 229 229
323 323 323 321 317 315 313 311 309 307 304 300 295 289 285 280 276 272 268 265 262 259 256 255 253 252 251 248 246 243 241 238 236 235 234 232 231 231 231 231 230 230 231
328 327 325 324 322 320 316 312 310 309 306 303 298 295 291 287 282 277 273 269 265 262 259 256 254 252 251 249 246 244 243 240 239 238 237 234 233 232 232 232 232 232 231
329 328 327 325 324 322 319 315 311 308 305 302 298 294 292 289 286 282 277 273 269 266 262 259 256 253 252 251 248 245 243 241 240 239 238 236 234 233 232 232 232 232 232
330 331 332 329 326 322 319 316 314 310 307 304 300 295 291 288 286 283 280 275 272 269 265 262 258 255 252 251 249 247 245 243 241 240 239 237 235 234 233 232 233 233 233
333 332 332 329 327 324 321 317 315 312 310 307 303 299 295 291 287 283 281 278 275 271 267 264 261 258 255 252 250 247 245 244 242 241 241 239 237 235 234 234 233 233 234
333 332 330 328 326 324 321 318 316 315 312 309 306 301 297 293 290 286 281 278 276 273 270 266 263 259 256 254 251 249 246 245 244 242 241 240 238 237 236 236 235 234 235
330 328 327 326 325 323 320 317 315 314 312 311 308 304 300 296 292 287 283 279 275 273 271 268 265 262 258 255 252 249 248 246 245 243 241 239 238 238 237 237 236 235 234
326 325 323 322 322 321 319 317 315 314 313 311 309 306 303 300 296 292 286 281 277 273 270 268 265 262 260 257 254 250 248 246 244 243 241 239 239 237 237 238 237 236 235
322 321 320 318 317 317 317 316 315 314 314 312 310 307 305 303 299 295 290 286 280 275 271 268 265 262 260 257 254 251 248 246 244 243 241 239 239 238 237 237 236 235 236
317 316 316 315 314 314 314 314 314 313 312 311 310 308 306 304 301 298 294 289 284 279 273 269 266 263 260 257 254 251 249 247 245 243 242 240 239 238 238 237 236 235 235
311 311 312 312 312 312 312 313 312 312 311 310 310 309 308 306 304 301 297 292 288 283 277 271 267 264 260 257 254 252 249 247 246 244 242 241 239 238 237 237 236 235 235
308 309 310 310 310 310 310 311 312 311 311 310 310 309 308 308 306 303 299 295 290 286 281 275 270 266 262 258 255 253 249 247 245 244 242 241 240 238 237 237 236 234 234
307 308 309 309 308 308 309 310 312 312 310 310 310 310 310 308 307 304 300 296 291 286 282 277 271 267 263 260 257 253 250 246 244 243 242 241 240 239 238 236 235 234 234
304 306 307 308 308 309 310 310 311 311 310 309 309 310 310 309 307 303 300 296 292 287 282 278 273 268 264 260 257 254 250 247 245 243 242 240 239 238 236 235 235 234 234
302 304 306 307 308 309 310 310 310 310 309 309 309 309 310 309 307 303 300 296 291 286 281 277 273 269 265 261 258 255 251 248 246 244 241 240 239 238 237 235 234 234 233
303 305 306 306 307 307 309 310 309 310 310 309 309 309 309 309 306 303 299 295 291 286 281 277 273 269 265 262 259 256 253 249 246 245 242 239 238 236 236 235 234 233 232
302 303 305 306 306 306 307 308 309 310 310 310 310 309 309 307 305 302 298 295 291 287 282 278 274 270 266 263 260 257 253 251 247 245 243 240 238 236 234 233 232 231 231
301 302 304 305 306 306 306 307 308 310 310 310 309 308 308 306 303 301 297 293 290 286 283 279 275 271 267 264 262 258 255 251 247 245 244 241 238 236 233 231 230 229 229
300 301 302 304 304 305 305 306 307 309 309 309 308 307 305 303 301 299 295 292 289 286 283 279 276 271 267 264 262 260 256 252 248 245 245 242 238 236 232 230 229 228 228
Height
5881 5880 5879 5878 5878 5877 5876 5876 5875 5874 5874 5874 5873 5873 5873 5873 5874 5874 5875 5876 5876 5877 5878 5879 5880 5883 5885 5887 5890 5892 5895 5897 5899 5902 5904 5906 5908 5910 5911 5913 5914 5915 5916
5878 5877 5876 5875 5875 5874 5873 5872 5871 5871 5870 5870 5869 5869 5869 5869 5869 5870 5871 5871 5872 5873 5874 5875 5876 5878 5880 5882 5885 5888 5890 5893 5896 5899 5901 5903 5906 5908 5910 5911 5913 5914 5915
5875 5874 5873 5872 5871 5870 5869 5868 5868 5867 5866 5866 5865 5865 5865 5865 5865 5866 5867 5867 5868 5869 5870 5871 5873 5873 5875 5877 5880 5883 5886 5889 5892 5894 5897 5900 5903 5905 5907 5909 5911 5912 5914
5872 5871 5870 5869 5868 5867 5866 5865 5864 5863 5862 5862 5861 5861 5860 5860 5861 5862 5862 5863 5864 5865 5866 5867 5868 5869 5870 5872 5874 5877 5880 5884 5887 5890 5893 5896 5899 5902 5904 5906 5908 5910 5912
5870 5869 5867 5866 5865 5863 5862 5861 5860 5859 5858 5858 5857 5856 5856 5856 5856 5857 5857 5858 5859 5860 5861 5862 5863 5864 5866 5867 5869 5872 5874 5878 5881 5885 5888 5891 5894 5897 5900 5903 5905 5907 5909
5868 5866 5865 5863 5862 5860 5859 5858 5857 5856 5854 5854 5853 5852 5852 5852 5851 5852 5852 5853 5853 5855 5856 5857 5858 5859 5861 5862 5864 5866 5869 5871 5875 5878 5882 5886 5889 5892 5895 5898 5901 5904 5906
5865 5864 5862 5860 5859 5857 5856 5855 5853 5852 5851 5850 5849 5848 5848 5847 5847 5847 5847 5847 5848 5849 5850 5851 5852 5854 5855 5857 5858 5860 5862 5865 5868 5872 5876 5879 5883 5887 5890 5893 5896 5899 5902
5863 5861 5860 5858 5856 5854 5853 5851 5850 5849 5847 5846 5845 5844 5844 5844 5843 5842 5842 5842 5843 5844 5845 5845 5846 5848 5849 5851 5853 5854 5856 5858 5861 5865 5868 5872 5876 5880 5884 5887 5891 5894 5897
5860 5859 5857 5855 5853 5852 5850 5848 5847 5845 5844 5843 5842 5841 5840 5839 5838 5838 5838 5837 5837 5838 5839 5839 5840 5841 5843 5844 5846 5848 5850 5852 5854 5857 5861 5864 5868 5873 5877 5881 5885 5888 5892
5858 5856 5854 5852 5850 5848 5847 5845 5843 5842 5840 5839 5838 5837 5836 5835 5834 5833 5833 5832 5832 5832 5832 5833 5834 5834 5836 5837 5839 5841 5843 5845 5847 5850 5853 5856 5860 5864 5869 5873 5877 5881 5885
5855 5853 5851 5849 5847 5845 5843 5841 5840 5838 5836 5835 5833 5832 5831 5830 5829 5828 5828 5827 5827 5826 5826 5826 5827 5827 5828 5830 5831 5833 5835 5837 5840 5842 5845 5848 5852 5856 5860 5865 5869 5874 5878
5853 5850 5848 5846 5844 5842 5840 5838 5836 5834 5832 5830 5828 5827 5826 5825 5824 5822 5821 5821 5820 5820 5820 5820 5819 5820 5821 5822 5823 5825 5827 5829 5831 5834 5837 5840 5843 5847 5852 5856 5861 5865 5870
5850 5847 5845 5843 5841 5838 5836 5834 5832 5829 5827 5825 5823 5821 5819 5818 5817 5816 5815 5813 5812 5812 5812 5812 5812 5812 5812 5813 5815 5816 5818 5820 5822 5825 5828 5831 5835 5839 5843 5847 5851 5856 5861
5847 5844 5842 5840 5837 5835 5832 5830 5827 5824 5822 5819 5817 5815 5812 5810 5809 5807 5806 5805 5804 5803 5802 5802 5802 5803 5803 5804 5805 5807 5809 5811 5813 5815 5818 5822 5825 5829 5833 5837 5841 5846 5851
5843 5841 5839 5836 5833 5831 5828 5825 5822 5819 5816 5813 5810 5807 5805 5802 5800 5798 5797 5796 5795 5794 5793 5791 5792 5792 5793 5794 5795 5797 5798 5800 5803 5805 5808 5811 5815 5819 5823 5827 5832 5836 5841
5839 5837 5834 5832 5829 5826 5823 5819 5816 5813 5810 5806 5803 5800 5797 5794 5791 5788 5786 5784 5783 5783 5782 5780 5779 5780 5781 5782 5784 5785 5787 5789 5791 5794 5797 5801 5804 5808 5813 5817 5821 5826 5831
5835 5832 5829 5826 5823 5820 5817 5813 5810 5806 5803 5799 5796 5792 5788 5785 5781 5778 5775 5772 5770 5769 5769 5767 5766 5766 5767 5769 5771 5773 5775 5777 5779 5782 5785 5789 5793 5797 5801 5806 5811 5815 5820
5829 5826 5823 5820 5817 5814 5810 5807 5803 5799 5795 5791 5787 5783 5779 5775 5771 5767 5763 5760 5757 5755 5755 5754 5752 5752 5753 5754 5756 5759 5761 5764 5767 5770 5773 5777 5781 5785 5789 5794 5799 5804 5809
5823 5820 5817 5814 5810 5807 5803 5799 5795 5791 5786 5782 5778 5773 5769 5764 5760 5756 5752 5748 5745 5742 5741 5741 5739 5738 5739 5739 5742 5744 5747 5750 5753 5756 5760 5764 5768 5772 5777 5782 5787 5792 5797
5817 5814 5810 5806 5803 5799 5795 5791 5787 5782 5777 5772 5768 5763 5758 5754 5749 5744 5740 5736 5733 5730 5728 5727 5727 5725 5725 5725 5727 5730 5733 5736 5739 5742 5746 5750 5755 5759 5764 5770 5775 5780 5785
5809 5806 5802 5798 5794 5791 5787 5782 5778 5773 5768 5763 5758 5753 5748 5743 5738 5733 5729 5725 5721 5719 5716 5715 5714 5713 5713 5713 5714 5716 5719 5722 5725 5728 5732 5737 5742 5747 5750 5756 5761 5767 5773
5801 5798 5794 5790 5786 5782 5777 5773 5768 5763 5758 5753 5748 5742 5737 5732 5727 5722 5718 5714 5710 5707 5705 5703 5702 5702 5701 5701 5702 5704 5706 5709 5713 5716 5719 5723 5727 5732 5737 5742 5748 5754 5760
5792 5789 5785 5781 5776 5772 5767 5763 5758 5753 5748 5742 5737 5732 5726 5721 5716 5711 5707 5703 5699 5696 5694 5692 5692 5691 5690 5690 5691 5692 5694 5696 5699 5701 5705 5710 5713 5719 5723 5729 5734 5741 5747
5783 5779 5775 5771 5766 5761 5757 5752 5747 5742 5737 5731 5726 5721 5715 5710 5705 5700 5696 5693 5689 5686 5683 5682 5681 5680 5679 5679 5679 5681 5682 5684 5687 5689 5691 5697 5700 5705 5710 5715 5721 5728 5734
5773 5769 5765 5760 5756 5751 5746 5741 5736 5731 5726 5720 5715 5709 5704 5699 5694 5689 5686 5682 5679 5675 5673 5671 5670 5669 5668 5668 5668 5669 5670 5672 5675 5677 5679 5684 5688 5691 5697 5703 5708 5714 5721
5763 5758 5754 5749 5745 5740 5734 5729 5724 5720 5714 5709 5703 5698 5693 5688 5683 5678 5675 5672 5668 5665 5663 5661 5659 5658 5658 5657 5657 5658 5659 5661 5663 5666 5667 5671 5675 5679 5685 5690 5695 5701 5708